This demonstration page uses our WeatherBlox Daily Observations layout. Learn more.

Left ArrowRight Arrow

39.29038, -76.61219

Hourly Observations for June 13, 2020

Temp ( °F °C ) Dew Point ( °F °C ) Humidity (%) Winds ( mph kmh ) Pressure ( in mb ) Visibility ( mi km ) Precip ( " mm )
12:54 am 00:54 Clear 69 20.6 50 10 51 51 WNW 5 7 30.10 1019 10 16 0.00 0.00
1:54 am 01:54 Clear 69 20.6 46 7.8 44 44 NNW 7 11 30.11 1020 10 16 0.00 0.00
2:54 am 02:54 Clear 66 18.9 44 6.7 45 45 NNW 5 7 30.12 1020 10 16 0.00 0.00
3:54 am 03:54 Clear 65 18.3 43 6.1 45 45 N 8 13 30.13 1020 10 16 0.00 0.00
4:54 am 04:54 Clear 63 17.2 44 6.7 50 50 NNW 5 7 30.14 1021 10 16 0.00 0.00
5:54 am 05:54 Sunny 59 15 46 7.8 62 62 NW 3 6 30.16 1021 10 16 0.00 0.00
6:54 am 06:54 Mostly Sunny 64 17.8 47 8.3 54 54 N 5 7 30.17 1022 10 16 0.00 0.00
7:54 am 07:54 Sunny 67 19.4 46 7.8 47 47 NNE 9 15 30.19 1022 10 16 0.00 0.00
8:54 am 08:54 Sunny 70 21.1 45 7.2 41 41 NNE 10 17 30.19 1023 10 16 0.00 0.00
9:54 am 09:54 Mostly Sunny 72 22.2 46 7.8 40 40 N 8 13 30.19 1022 10 16 0.00 0.00
10:54 am 10:54 Mostly Sunny 75 23.9 48 8.9 39 39 NE 7 11 30.19 1023 10 16 0.00 0.00
11:54 am 11:54 Partly Cloudy 75 23.9 49 9.4 40 40 NNW 8 13 30.20 1023 10 16 0.00 0.00
12:54 pm 12:54 Partly Cloudy 76 24.4 50 10 40 40 undefined N/A 30.19 1023 10 16 0.00 0.00
1:54 pm 13:54 Partly Cloudy 78 25.6 50 10 37 37 NNW 10 17 30.18 1022 10 16 0.00 0.00
2:54 pm 14:54 Partly Cloudy 78 25.6 51 10.6 39 39 VRB 6 9 30.17 1022 10 16 0.00 0.00
3:54 pm 15:54 Partly Cloudy 79 26.1 51 10.6 38 38 NNW 9 15 30.16 1021 10 16 0.00 0.00
4:54 pm 16:54 Partly Cloudy 78 25.6 49 9.4 36 36 NNW 9 15 30.15 1021 10 16 0.00 0.00
5:54 pm 17:54 Mostly Sunny 77 25 49 9.4 37 37 NW 12 19 30.16 1021 10 16 0.00 0.00
6:54 pm 18:54 Mostly Sunny 76 24.4 48 8.9 37 37 NNW 8 13 30.16 1022 10 16 0.00 0.00
7:54 pm 19:54 Partly Cloudy 72 22.2 46 7.8 40 40 N 5 7 30.18 1022 10 16 0.00 0.00
8:54 pm 20:54 Partly Cloudy 70 21.1 42 5.6 37 37 NNE 8 13 30.19 1022 10 16 0.00 0.00
9:54 pm 21:54 Mostly Cloudy 69 20.6 39 3.9 33 33 NNE 7 11 30.21 1023 10 16 0.00 0.00
10:54 pm 22:54 Mostly Cloudy 69 20.6 40 4.4 35 35 NNE 5 7 30.22 1023 10 16 0.00 0.00
11:54 pm 23:54 Cloudy 69 20.6 39 3.9 33 33 NE 8 13 30.22 1023 10 16 0.00 0.00

Powered by AerisWeather